TimePDT,TemperatureF,Dew PointF,Humidity,Sea Level PressureIn,VisibilityMPH,Wind Direction,Wind SpeedMPH,Gust SpeedMPH,PrecipitationIn,Events,Conditions,WindDirDegrees,DateUTC
12:53 AM,37.0,34.0,89,29.91,10.0,SSE,3.5,-,N/A,,Clear,150,2013-04-01 07:53:00
1:53 AM,37.0,34.0,89,29.92,10.0,SSW,3.5,-,N/A,,Clear,210,2013-04-01 08:53:00
2:53 AM,36.0,34.0,93,29.92,10.0,SE,4.6,-,N/A,,Clear,130,2013-04-01 09:53:00
3:53 AM,39.0,35.1,86,29.93,10.0,SSE,3.5,-,N/A,,Clear,150,2013-04-01 10:53:00
4:53 AM,37.0,34.0,89,29.94,10.0,SE,3.5,-,N/A,,Clear,140,2013-04-01 11:53:00
5:53 AM,35.1,32.0,89,29.94,10.0,SE,4.6,-,N/A,,Clear,130,2013-04-01 12:53:00
6:53 AM,35.1,32.0,89,29.95,10.0,Calm,Calm,-,N/A,,Clear,0,2013-04-01 13:53:00
7:53 AM,45.0,39.9,82,29.97,10.0,Calm,Calm,-,N/A,,Clear,0,2013-04-01 14:53:00
8:53 AM,53.1,43.0,69,29.98,10.0,SW,3.5,-,N/A,,Clear,220,2013-04-01 15:53:00
9:53 AM,57.0,45.0,64,29.99,10.0,WNW,4.6,-,N/A,,Clear,290,2013-04-01 16:53:00
10:53 AM,63.0,48.0,58,29.99,10.0,WNW,4.6,-,N/A,,Clear,300,2013-04-01 17:53:00
11:53 AM,66.0,46.9,50,29.99,10.0,West,6.9,-,N/A,,Clear,270,2013-04-01 18:53:00
12:53 PM,69.1,46.0,44,29.97,10.0,WSW,8.1,-,N/A,,Clear,250,2013-04-01 19:53:00
1:53 PM,71.1,44.1,38,29.95,10.0,WNW,3.5,-,N/A,,Clear,290,2013-04-01 20:53:00
2:53 PM,73.0,44.1,35,29.94,10.0,West,9.2,-,N/A,,Clear,280,2013-04-01 21:53:00
3:53 PM,73.9,42.1,32,29.93,10.0,Calm,Calm,-,N/A,,Clear,0,2013-04-01 22:53:00
4:53 PM,75.0,42.1,31,29.92,10.0,WSW,4.6,-,N/A,,Clear,240,2013-04-01 23:53:00
5:53 PM,73.9,43.0,33,29.92,10.0,West,9.2,-,N/A,,Clear,270,2013-04-02 00:53:00
6:53 PM,68.0,45.0,43,29.94,10.0,WSW,12.7,-,N/A,,Clear,250,2013-04-02 01:53:00
7:53 PM,61.0,45.0,56,29.97,10.0,SW,15.0,21.9,N/A,,Clear,230,2013-04-02 02:53:00
8:53 PM,57.0,44.1,62,29.99,10.0,SW,12.7,23.0,N/A,,Clear,220,2013-04-02 03:53:00
9:53 PM,55.9,44.1,64,30.00,10.0,SW,13.8,21.9,N/A,,Clear,220,2013-04-02 04:53:00
10:53 PM,55.9,43.0,62,30.00,10.0,SW,12.7,19.6,N/A,,Clear,220,2013-04-02 05:53:00
11:53 PM,55.9,43.0,62,30.01,10.0,SW,16.1,24.2,N/A,,Clear,230,2013-04-02 06:53:00